sat.trackr.live / text

‹ back to catalog

STARLINK-33726

NORAD 63437 · 2025-069E

PAYLOAD ACTIVE UNKNOWN

§ Identity

Operator
Country
US
Launch date
2025-04-04
Launch site
AFWTR
Launch vehicle
Mass (kg)
RCS (m²)

Purposes: comms

External: N2YO · Heavens-Above · Gunter

§ Orbital elements

Epoch: 2026-05-25T00:03:05.177664Z

Period
93.37 min
Inclination
53.1585°
Eccentricity
0.0000955
Mean motion
15.42184733 rev/d
Perigee alt
439.0 km
Apogee alt
440.3 km
Semi-major
6,817.8 km
B*
6.3850e-4
RAAN
145.5213°
Arg perigee
76.3656°
Mean anomaly
283.7456°
Rev number
6,507

§ Raw data

STARLINK-337261 63437U 25069E   26145.00214326  .00027496  00000+0  63850-3 0  99932 63437  53.1585 145.5213 0000955  76.3656 283.7456 15.42184733 65076

JSON: /api/v1/satellites/63437 · /tle

For live sub-satellite position, see the globe view (requires WebGL).

§ Visibility from observer

Set your observer location to see the next 7 days of passes ≥ 10°. The values pass through the URL so the page stays shareable.

No JS? Fill the form by hand. The geolocation button needs JavaScript.